Denver, CO

8:53 AM MDT on May 27, 2018 (GMT -0600)
Denver International

Weather History for KDEN - February, 2013

Change the Weather History Date:

Thursday, February 7, 2013

  Actual Average Record
Temperature  
Mean Temperature 37 °F 31 °F  
Max Temperature 49 °F 45 °F 74 °F (2015)
Min Temperature 25 °F 18 °F -17 °F (1936)
Degree Days  
Heating Degree Days 28 34  
Month to date heating degree days 180 238  
Since 1 July heating degree days 3480 3769  
Cooling Degree Days 0 0  
Month to date cooling degree days 0 0  
Year to date cooling degree days 0 0  
Moisture  
Dew Point 18 °F    
Average Humidity 50    
Maximum Humidity 85    
Minimum Humidity 14    
Precipitation  
Precipitation T in 0.01 in 0.54 in (1934)
Month to date precipitation 0.01 0.09  
Year to date precipitation 0.32 0.50  
Snow  
Snow T in - - ()
Month to date snowfall T  
Since 1 July snowfall 17  
Snow Depth 0.00 in    
Sea Level Pressure  
Sea Level Pressure 30.08 in    
Wind  
Wind Speed 8 mph (South)    
Max Wind Speed 25 mph    
Max Gust Speed 30 mph    
Visibility 10 miles    
Events      
T = Trace of Precipitation, MM = Missing Value Source: NWS Daily Summary

Daily Weather History Graph

Daily Weather History Graph

Search for Another Location

Airport or City:

Astronomy

Feb. 07, 2013 Rise Set
Actual Time 7:00 AM MST 5:25 PM MST
Civil Twilight 6:32 AM MST 5:53 PM MST
Nautical Twilight 6:00 AM MST 6:25 PM MST
Astronomical Twilight 5:28 AM MST 6:57 PM MST
Moon 4:42 AM MST (2/7) 2:53 PM MST (2/7)
Length of Visible Light 11h 21m
Length of Day
10h 25m
Waning Crescent, 8% of the Moon is Illuminated
Feb 7
Waning Crescent
Feb 10
New
Feb 17
First Quarter
Feb 25
Full
Mar 4
Last Quarter

Hourly Weather History & Observations

Time (MST) Temp. Windchill Dew Point Humidity Pressure Visibility Wind Dir Wind Speed Gust Speed Precip Events Conditions
12:53 AM 33.1 °F 26.9 °F 25.0 °F 72% 30.03 in 10.0 mi NNE 6.9 mph - 0.00 in   Overcast
1:53 AM 32.0 °F - 23.0 °F 69% 30.05 in 10.0 mi Calm Calm - N/A   Overcast
2:53 AM 32.0 °F 28.7 °F 23.0 °F 69% 30.07 in 10.0 mi WNW 3.5 mph - N/A   Overcast
3:53 AM 30.9 °F - 24.1 °F 76% 30.07 in 10.0 mi Calm Calm - N/A   Overcast
4:53 AM 28.9 °F 22.8 °F 24.1 °F 82% 30.10 in 10.0 mi SW 5.8 mph - N/A   Scattered Clouds
5:53 AM 27.0 °F 20.5 °F 21.9 °F 81% 30.12 in 10.0 mi WSW 5.8 mph - N/A   Partly Cloudy
6:53 AM 26.1 °F 17.6 °F 21.9 °F 84% 30.14 in 10.0 mi SW 8.1 mph - N/A   Partly Cloudy
7:53 AM 26.1 °F 20.5 °F 21.9 °F 84% 30.17 in 8.0 mi SW 4.6 mph - N/A   Clear
8:53 AM 30.9 °F 24.3 °F 26.1 °F 82% 30.18 in 8.0 mi SW 6.9 mph - N/A   Clear
9:53 AM 35.1 °F 28.6 °F 27.0 °F 72% 30.17 in 10.0 mi SSW 8.1 mph - N/A   Clear
10:53 AM 39.9 °F 35.1 °F 24.1 °F 53% 30.15 in 10.0 mi SSW 6.9 mph - N/A   Partly Cloudy
11:53 AM 42.1 °F 37.7 °F 17.1 °F 37% 30.13 in 10.0 mi South 6.9 mph - N/A   Partly Cloudy
12:53 PM 44.1 °F 39.0 °F 12.9 °F 28% 30.09 in 10.0 mi South 9.2 mph 16.1 mph N/A   Partly Cloudy
1:53 PM 46.0 °F 40.6 °F 10.0 °F 23% 30.06 in 10.0 mi SSE 11.5 mph 16.1 mph N/A   Partly Cloudy
2:53 PM 48.0 °F - 8.1 °F 20% 30.04 in 10.0 mi SSE 10.4 mph - N/A   Partly Cloudy
3:53 PM 48.0 °F - 1.0 °F 14% 30.02 in 10.0 mi SE 9.2 mph - N/A   Partly Cloudy
4:53 PM 44.1 °F 39.0 °F 1.9 °F 17% 30.04 in 10.0 mi SE 9.2 mph - N/A   Partly Cloudy
5:53 PM 35.1 °F 28.6 °F 6.1 °F 30% 30.09 in 10.0 mi SE 8.1 mph - N/A   Partly Cloudy
6:53 PM 30.0 °F 20.0 °F 16.0 °F 56% 30.12 in 10.0 mi South 12.7 mph - N/A   Clear
7:53 PM 28.0 °F 18.6 °F 18.0 °F 66% 30.12 in 10.0 mi SSE 10.4 mph - N/A   Clear
8:53 PM 28.9 °F 18.6 °F 19.9 °F 69% 30.08 in 10.0 mi South 12.7 mph - N/A   Clear
9:53 PM 32.0 °F 26.4 °F 19.0 °F 59% 30.04 in 10.0 mi SSE 5.8 mph - N/A   Clear
10:53 PM 34.0 °F 24.2 °F 18.0 °F 52% 30.00 in 10.0 mi SSW 15.0 mph - N/A   Partly Cloudy
11:53 PM 36.0 °F 24.2 °F 17.1 °F 46% 29.97 in 10.0 mi South 24.2 mph - N/A   Partly Cloudy